Location: LDNL
(36.4545°S, 141.6685°E)
Time: 13:04:01
(UTC+10:00)

Vanguard 3 - Pass Details

Date: 31 January 2022
Orbit: 508 x 3258 km, 33.3° (Epoch: 25 May)

Event Time Altitude Azimuth Distance (km) Brightness Sun altitude
Rises 03:20:40 0° 267° (W) 4,461 - -31.6°
Reaches altitude 10° 03:23:07 10° 269° (W) 3,769 - -31.4°
Exits shadow 03:26:56 31° 274° (W) 2,868 9.6 -31.0°
Maximum altitude 03:33:41 74° 351° (N) 2,362 9.1 -30.4°
Drops below altitude 10° 03:51:35 10° 71° (ENE) 6,016 11.7 -28.5°
Sets 03:56:41 0° 72° (ENE) 7,177 12.2 -27.9°
